Tracking 17265 objects as of 4-September-2015
HD Live streaming from Space Station

Track Soyuz TMA-18M
and Space Station

COSMOS 2230

Track COSMOS 2230 now!
10-day predictions
COSMOS 2230 is classified as:


NORAD ID: 22307
Int'l Code: 1993-001A
Perigee: 976.6 km
Apogee: 1,011.8 km
Inclination: 82.9 °
Period: 104.8 minutes
Semi major axis: 7365 km
RCS: 1.5931 m2 (large)
Launch date: January 12, 1993
Source: Commonwealth of Independent States (former USSR) (CIS)
Your satellite tracking list
Your tracking list is empty





NASA's NSSDC Master Catalog

Two Line Element Set (TLE):
1 22307U 93001A   15245.76601178 +.00000064 +00000-0 +52345-4 0  9993
2 22307 082.9436 321.3899 0023896 334.6486 142.6493 13.73501223126415

Source of the keplerian elements: AFSPC

N2YO: 297